Thunder Bay, Ontario

3:54 AM EDT on May 28, 2017 (GMT -0400)
Thunder Bay

Weather History for CYQT - November, 2012

Change the Weather History Date:

Saturday, November 3, 2012

  Actual Average Record
Temperature  
Mean Temperature 28 °F -  
Max Temperature 32 °F -11 °F 53 °F (2001)
Min Temperature 24 °F -24 °F 17 °F (1999)
Degree Days  
Heating Degree Days 37    
Moisture  
Dew Point 22 °F    
Average Humidity 76    
Maximum Humidity 86    
Minimum Humidity 64    
Precipitation  
Precipitation 0.00 in 0.01 in - ()
Sea Level Pressure  
Sea Level Pressure 30.33 in    
Wind  
Wind Speed 3 mph ()    
Max Wind Speed 8 mph    
Max Gust Speed -    
Visibility 16.2 miles    
Events      
Averages and records for this station are not official NWS values.
T = Trace of Precipitation, MM = Missing Value Source: Averaged Metar Reports

Daily Weather History Graph

Daily Weather History Graph

Search for Another Location

Airport or City:

Trip Planner

Search our weather history database for the weather conditions in past years. The results will help you decide how hot, cold, wet, or windy it might be!

Date:

Astronomy

Nov. 03, 2012 Rise Set
Actual Time 8:46 AM EDT 6:34 PM EDT
Civil Twilight 8:13 AM EDT 7:06 PM EDT
Nautical Twilight 7:36 AM EDT 7:44 PM EDT
Astronomical Twilight 7:00 AM EDT 8:20 PM EDT
Moon 10:07 PM EDT (11/3) 12:59 PM EDT (11/3)
Length of Visible Light 10h 53m
Length of Day
9h 47m
Waning Gibbous, 80% of the Moon is Illuminated
Nov 3
Waning Gibbous
Nov 6
Last Quarter
Nov 13
New
Nov 20
First Quarter
Nov 28
Full

Hourly Weather History & Observations

Time (EDT) Temp. Windchill Dew Point Humidity Pressure Visibility Wind Dir Wind Speed Gust Speed Precip Events Conditions
12:00 AM 28.4 °F 24.6 °F 21.2 °F 74% 30.30 in 15.0 mi NNE 3.5 mph - N/A   Overcast
1:00 AM 28.4 °F - 21.2 °F 74% 30.31 in 15.0 mi Calm Calm - N/A   Overcast
2:00 AM 28 °F - 22 °F 70% 30.32 in 10 mi NE 3.5 mph - -  
2:00 AM 28.4 °F 24.6 °F 21.2 °F 74% 30.32 in 15.0 mi ENE 3.5 mph - N/A   Overcast
3:00 AM 28.4 °F - 21.2 °F 74% 30.32 in 15.0 mi NW 2.3 mph - N/A   Overcast
4:00 AM 26.6 °F 20.0 °F 21.2 °F 80% 30.32 in 15.0 mi NW 5.8 mph - N/A   Overcast
5:00 AM 26.6 °F 22.6 °F 23.0 °F 86% 30.32 in 15.0 mi WNW 3.5 mph - N/A   Overcast
6:00 AM 26.6 °F 21.2 °F 21.2 °F 80% 30.33 in 15.0 mi West 4.6 mph - N/A   Overcast
7:00 AM 26.6 °F 20.0 °F 21.2 °F 80% 30.33 in 15.0 mi WNW 5.8 mph - N/A   Overcast
8:00 AM 27 °F - 22 °F 73% 30.34 in 10 mi North 2.3 mph - -   Overcast
8:00 AM 26.6 °F - 21.2 °F 80% 30.34 in 20.0 mi North 2.3 mph - N/A   Overcast
9:00 AM 26.6 °F 22.6 °F 21.2 °F 80% 30.35 in 20.0 mi North 3.5 mph - N/A   Overcast
10:00 AM 26.6 °F 21.2 °F 21.2 °F 80% 30.36 in 20.0 mi NW 4.6 mph - N/A   Overcast
11:00 AM 26.6 °F - 21.2 °F 80% 30.36 in 20.0 mi Calm Calm - N/A   Overcast
12:00 PM 26.6 °F 22.6 °F 21.2 °F 80% 30.36 in 20.0 mi NW 3.5 mph - N/A   Overcast
1:00 PM 28.4 °F 24.6 °F 23.0 °F 80% 30.35 in 20.0 mi WNW 3.5 mph - N/A   Overcast
2:00 PM 29 °F - 22 °F 68% 30.34 in 10 mi WNW 2.3 mph - -   Overcast
2:00 PM 28.4 °F - 23.0 °F 80% 30.34 in 20.0 mi Calm Calm - N/A   Overcast
3:00 PM 30.2 °F 26.7 °F 23.0 °F 75% 30.33 in 20.0 mi WNW 3.5 mph - N/A   Overcast
4:00 PM 32.0 °F 24.8 °F 21.2 °F 64% 30.32 in 20.0 mi NW 8.1 mph - N/A   Overcast
5:00 PM 32.0 °F 25.6 °F 23.0 °F 69% 30.32 in 20.0 mi NW 6.9 mph - N/A   Mostly Cloudy
6:00 PM 30.2 °F 23.4 °F 21.2 °F 69% 30.33 in 20.0 mi NW 6.9 mph - N/A   Mostly Cloudy
7:00 PM 28.4 °F 22.2 °F 21.2 °F 74% 30.33 in 15.0 mi NW 5.8 mph - N/A   Mostly Cloudy
8:00 PM 28 °F - 21 °F 66% 30.33 in 10 mi NW 4.6 mph - -  
8:00 PM 26.6 °F 21.2 °F 21.2 °F 80% 30.33 in 15.0 mi NW 4.6 mph - N/A   Scattered Clouds
9:00 PM 26.6 °F 21.2 °F 21.2 °F 80% 30.33 in 15.0 mi NW 4.6 mph - N/A   Clear
10:00 PM 24.8 °F 19.1 °F 21.2 °F 86% 30.34 in 15.0 mi WNW 4.6 mph - N/A   Scattered Clouds
11:00 PM 24.8 °F 19.1 °F 21.2 °F 86% 30.34 in 15.0 mi West 4.6 mph - N/A   Mostly Cloudy